Location: Marysville Observatory
(48.1092°N, 122.1645°W)
Time: 04:32:34
(UTC-08:00)

Amateur Radio Satellites - All Passes

Search period start: 06 March 2015 04:02
Search period end: 07 March 2015 04:02
Location: Marysville Observatory, 48.1092°N, 122.1645°W

Satellite Date Start Highest point End Downlink Frequencies (MHz)
Time Altitude Azimuth
HORYU 2 06 Mar 04:07:32 04:11:59 73° 287° (WNW) 04:16:26 437.375
SO-50 06 Mar 04:16:43 04:19:08 13° 346° (NNW) 04:21:30 436.795
CUBESAT XI-V 06 Mar 04:28:11 04:31:22 19° 61° (ENE) 04:34:40 437.345
PCSat 06 Mar 04:28:44 04:34:12 73° 54° (NE) 04:39:37 145.827
STRAND 1 06 Mar 04:29:29 04:32:20 15° 56° (NE) 04:35:22 437.568
JAS-2 06 Mar 04:32:54 04:40:22 68° 101° (E) 04:48:14 435.910
AO-7 06 Mar 04:59:17 05:07:38 85° 291° (WNW) 05:15:56 29.400- 29.500
PRISM 06 Mar 05:09:42 05:13:36 40° 69° (ENE) 05:17:34 437.425
YUBILEINY 06 Mar 05:28:28 05:33:16 15° 287° (WNW) 05:37:33 435.215
MOZHAYETS 4 06 Mar 05:33:53 05:36:14 13° 274° (W) 05:38:23
HORYU 2 06 Mar 05:46:49 05:47:56 11° 304° (NW) 05:48:50 437.375
GONETS M04 06 Mar 05:48:05 05:50:11 11° 40° (NE) 05:52:47
SO-50 06 Mar 05:59:42 06:01:44 12° 10° (N) 06:03:49 436.795
CUBESAT XI-V 06 Mar 06:03:42 06:08:23 65° 259° (W) 06:13:07 437.345
STRAND 1 06 Mar 06:05:42 06:10:52 87° 75° (ENE) 06:16:05 437.568
RS-15 06 Mar 06:10:20 06:21:25 57° 38° (NE) 06:33:02 29.354- 29.394
PCSat 06 Mar 06:13:09 06:17:07 20° 252° (WSW) 06:20:55 145.827
Cubesat XI-IV 06 Mar 06:15:04 06:20:18 49° 99° (E) 06:25:29 437.490
JAS-2 06 Mar 06:18:32 06:25:01 33° 299° (WNW) 06:31:43 435.910
CUTE-I 06 Mar 06:22:50 06:28:07 56° 100° (E) 06:33:23 437.470
PRISM 06 Mar 06:46:01 06:49:17 22° 268° (W) 06:52:32 437.425
AO-7 06 Mar 06:53:01 06:59:29 25° 312° (NW) 07:05:43 29.400- 29.500
AIST 1 06 Mar 06:53:28 06:57:51 85° 99° (E) 07:02:18
O/OREOS (USA 219) 06 Mar 07:21:53 07:22:48 11° 98° (E) 07:23:58 437.305
SO-50 06 Mar 07:39:46 07:43:56 27° 34° (NE) 07:48:08 436.795
GONETS M04 06 Mar 07:41:55 07:50:11 45° 69° (ENE) 07:58:32
STRAND 1 06 Mar 07:48:04 07:50:53 14° 274° (W) 07:53:27 437.568
HO-68 06 Mar 07:50:08 07:55:30 23° 88° (E) 08:01:04 435.675
Cubesat XI-IV 06 Mar 07:55:37 08:00:12 28° 298° (WNW) 08:04:40 437.490
SEEDS 06 Mar 08:00:49 08:02:59 14° 87° (E) 08:05:20 437.485
CUTE-I 06 Mar 08:03:32 08:07:54 25° 299° (WNW) 08:12:09 437.470
CANX-2 06 Mar 08:09:42 08:13:01 22° 92° (E) 08:16:24 2200.000
ISS 06 Mar 08:13:54 08:16:59 45° 149° (SSE) 08:20:06 145.825
RS-15 06 Mar 08:23:03 08:34:08 59° 243° (WSW) 08:45:37 29.354- 29.394
CINEMA 3 06 Mar 08:24:38 08:25:46 11° 85° (E) 08:27:07 145.822/145.860
CUTE 1.7 + AOD 2 06 Mar 08:27:23 08:31:09 30° 95° (E) 08:34:57 437.475
GOMX 1 06 Mar 08:29:01 08:32:56 33° 95° (E) 08:36:44 467.674
UNISAT 6 06 Mar 08:32:47 08:35:25 16° 61° (ENE) 08:38:10 437.425
AIST 1 06 Mar 08:34:25 08:36:17 12° 299° (WNW) 08:37:58
DOVE 4 06 Mar 08:44:36 08:48:26 32° 95° (E) 08:52:12 437.250
POPSAT HIP 1 06 Mar 08:44:36 08:46:23 13° 59° (ENE) 08:48:20 437.405
BRITE-PL 06 Mar 08:44:40 08:49:13 72° 102° (ESE) 08:53:27 437.365/2234.400
POLYITAN 1 06 Mar 08:45:59 08:47:57 13° 59° (ENE) 08:50:04 437.675
TIGRISAT 06 Mar 08:54:50 08:58:21 25° 65° (ENE) 09:01:53 435.000
AAUSAT CUBESAT 2 06 Mar 08:55:52 08:59:46 36° 96° (E) 09:03:41 437.432
O/OREOS (USA 219) 06 Mar 08:56:57 09:01:31 85° 115° (ESE) 09:06:10 437.305
COMPASS 1 06 Mar 09:01:37 09:05:43 47° 99° (E) 09:09:48 437.405
NANOSAT C BR1 06 Mar 09:04:45 09:07:45 19° 63° (ENE) 09:10:49 145.865
UWE-3 06 Mar 09:07:30 09:09:55 15° 89° (E) 09:12:29 435.000/436.395/437.385
ANTELSAT 06 Mar 09:10:14 09:14:10 35° 68° (ENE) 09:18:06 437.575/2403.000
Oscar 11 06 Mar 09:18:17 09:22:09 31° 95° (E) 09:26:04 145.826/435.025
SO-50 06 Mar 09:20:01 09:24:58 72° 235° (SW) 09:29:54 436.795
BUGSAT 1 06 Mar 09:27:03 09:30:26 24° 65° (ENE) 09:33:53 437.445
SEEDS 06 Mar 09:35:06 09:39:19 65° 286° (WNW) 09:43:32 437.485
HO-68 06 Mar 09:36:53 09:44:07 81° 290° (WNW) 09:51:19 435.675
QB50P1 06 Mar 09:37:34 09:41:31 38° 69° (ENE) 09:45:30 145.935-145.965
GONETS M04 06 Mar 09:38:54 09:47:13 49° 271° (W) 09:55:29
DELFI C3 06 Mar 09:39:12 09:43:04 40° 98° (E) 09:46:57 145.870
QB50P2 06 Mar 09:42:47 09:46:50 43° 70° (ENE) 09:50:55 145.880/145.840
CANX-2 06 Mar 09:45:08 09:49:09 41° 290° (WNW) 09:53:09 2200.000
HUMSAT D 06 Mar 09:45:49 09:48:29 17° 90° (E) 09:51:16 437.325/437.525
DX 1 06 Mar 09:49:44 09:53:36 31° 95° (E) 09:57:29 434.975-435.025
ISS 06 Mar 09:50:16 09:53:26 52° 347° (NNW) 09:56:36 145.825
CUBEBUG 2 06 Mar 09:52:33 09:56:38 51° 99° (E) 10:00:42 437.445
DUCHIFAT 1 06 Mar 09:54:01 09:58:11 54° 72° (ENE) 10:02:23 145.980
CINEMA 3 06 Mar 09:59:29 10:03:40 77° 285° (WNW) 10:07:49 145.822/145.860
CUTE 1.7 + AOD 2 06 Mar 10:03:19 10:07:05 30° 293° (WNW) 10:10:47 437.475
GOMX 1 06 Mar 10:07:19 10:11:03 27° 294° (WNW) 10:14:33 467.674
UNISAT 6 06 Mar 10:07:30 10:11:50 64° 259° (WSW) 10:16:06 437.425
FUNcube-1 06 Mar 10:11:23 10:15:28 55° 100° (E) 10:19:35 145.935
AISAT 06 Mar 10:12:08 10:15:42 24° 93° (E) 10:19:19 437.250
UKube-1 06 Mar 10:13:45 10:18:00 50° 100° (E) 10:22:14 .
ZACube-1 06 Mar 10:14:10 10:18:18 60° 101° (E) 10:22:26 437.345
POPSAT HIP 1 06 Mar 10:17:25 10:21:43 87° 256° (WSW) 10:26:02 437.405
POLYITAN 1 06 Mar 10:19:03 10:23:21 82° 256° (WSW) 10:27:39 437.675
VELOX 1 06 Mar 10:19:30 10:23:18 27° 94° (E) 10:27:06 145.980
DOVE 4 06 Mar 10:22:34 10:26:10 26° 294° (WNW) 10:29:37 437.250
BRITE-PL 06 Mar 10:24:33 10:27:11 15° 302° (WNW) 10:29:37 437.365/2234.400
TIGRISAT 06 Mar 10:30:54 10:34:59 38° 263° (W) 10:39:00 435.000
AAUSAT CUBESAT 2 06 Mar 10:31:49 10:35:18 25° 294° (WNW) 10:38:42 437.432
50 SAT 06 Mar 10:33:51 10:37:31 36° 97° (E) 10:41:13 437.505
COMPASS 1 06 Mar 10:38:01 10:41:09 20° 296° (WNW) 10:44:11 437.405
O/OREOS (USA 219) 06 Mar 10:38:38 10:41:39 17° 316° (NW) 10:44:34 437.305
RS-15 06 Mar 10:38:51 10:44:23 14° 264° (W) 10:49:01 29.354- 29.394
NANOSAT C BR1 06 Mar 10:39:06 10:43:17 52° 260° (W) 10:47:29 145.865
UWE-3 06 Mar 10:42:49 10:46:55 56° 288° (WNW) 10:51:00 435.000/436.395/437.385
ANTELSAT 06 Mar 10:47:22 10:51:05 26° 266° (W) 10:54:41 437.575/2403.000
DANDE 06 Mar 10:47:56 10:50:34 59° 261° (W) 10:53:11 436.750
ESTCUBE 1 06 Mar 10:50:37 10:54:36 29° 94° (E) 10:58:36 437.505/2401.250
CUSAT 1 06 Mar 10:53:15 10:55:38 32° 263° (W) 10:58:06 437.405
Oscar 11 06 Mar 10:54:31 10:58:19 30° 293° (WNW) 11:02:05 145.826/435.025
BUGSAT 1 06 Mar 11:01:42 11:05:46 40° 263° (W) 11:09:48 437.445
SO-50 06 Mar 11:03:03 11:04:47 11° 252° (WSW) 11:06:16 436.795
QB50P1 06 Mar 11:14:00 11:17:33 24° 267° (W) 11:21:01 145.935-145.965
DELFI C3 06 Mar 11:14:53 11:18:04 22° 295° (WNW) 11:21:12 145.870
QB50P2 06 Mar 11:19:39 11:22:59 21° 268° (W) 11:26:13 145.880/145.840
HUMSAT D 06 Mar 11:20:37 11:24:37 50° 288° (WNW) 11:28:37 437.325/437.525
HO-68 06 Mar 11:25:47 11:30:55 21° 310° (NW) 11:35:53 435.675
DX 1 06 Mar 11:25:58 11:29:51 31° 294° (WNW) 11:33:40 434.975-435.025
ISS 06 Mar 11:27:04 11:30:12 45° 8° (N) 11:33:20 145.825
CUBEBUG 2 06 Mar 11:30:09 11:33:03 18° 297° (WNW) 11:35:50 437.445
DUCHIFAT 1 06 Mar 11:31:31 11:34:24 17° 270° (W) 11:37:10 145.980
CUBEBUG 1 06 Mar 11:36:58 11:41:24 75° 103° (ESE) 11:45:47 437.445
TISAT 1 06 Mar 11:42:04 11:45:17 21° 92° (E) 11:48:34 437.305
AISAT 06 Mar 11:48:19 11:52:31 41° 291° (WNW) 11:56:39 437.250
FUNcube-1 06 Mar 11:48:43 11:51:29 17° 298° (WNW) 11:54:09 145.935
UKube-1 06 Mar 11:50:37 11:53:52 20° 298° (WNW) 11:57:00 .
ZACube-1 06 Mar 11:51:40 11:54:17 16° 298° (WNW) 11:56:47 437.345
SPROUT 06 Mar 11:52:50 11:56:39 31° 95° (E) 12:00:28 437.525
Oscar 19 06 Mar 11:53:28 11:58:06 36° 66° (ENE) 12:02:48 437.125/150
VELOX 1 06 Mar 11:55:52 11:59:58 36° 292° (WNW) 12:04:00 145.980
Gurwin Techsat 1B 06 Mar 12:00:31 12:03:08 14° 55° (NE) 12:05:58 435.225
ITAMSAT 1 06 Mar 12:02:39 12:06:06 19° 58° (ENE) 12:09:42 435.822/435.867
50 SAT 06 Mar 12:09:14 12:12:22 22° 294° (WNW) 12:15:26 437.505
AO-7 06 Mar 12:22:45 12:26:48 15° 36° (NE) 12:31:10 29.400- 29.500
ESTCUBE 1 06 Mar 12:27:22 12:31:32 35° 293° (WNW) 12:35:39 437.505/2401.250
ISS 06 Mar 13:03:32 13:06:45 68° 208° (SSW) 13:09:59 145.825
CUBEBUG 1 06 Mar 13:14:42 13:17:16 15° 301° (WNW) 13:19:40 437.445
SWISSCUBE 06 Mar 13:16:20 13:20:47 36° 96° (E) 13:25:14 437.505
TISAT 1 06 Mar 13:17:19 13:21:19 41° 290° (WNW) 13:25:16 437.305
BEESAT 06 Mar 13:24:07 13:28:38 39° 97° (E) 13:33:08 436.000
SPROUT 06 Mar 13:28:56 13:32:44 30° 293° (WNW) 13:36:26 437.525
Oscar 19 06 Mar 13:32:49 13:37:30 34° 264° (W) 13:42:10 437.125/150
HORYU 2 06 Mar 13:34:09 13:37:25 21° 63° (ENE) 13:40:47 437.375
Gurwin Techsat 1B 06 Mar 13:37:02 13:42:21 77° 74° (ENE) 13:47:42 435.225
ITAMSAT 1 06 Mar 13:39:49 13:45:04 79° 255° (WSW) 13:50:21 435.822/435.867
ITUPSAT 1 06 Mar 13:54:04 13:58:56 73° 103° (ESE) 14:03:46 437.325
STARS 06 Mar 14:01:06 14:02:57 13° 87° (E) 14:04:59 437.465
KKS-1 06 Mar 14:03:39 14:06:55 20° 91° (E) 14:10:18 437.445
AO-7 06 Mar 14:09:56 14:17:45 48° 59° (ENE) 14:25:38 29.400- 29.500
YUBILEINY 06 Mar 14:39:12 14:46:25 31° 83° (E) 14:53:53 435.215
ISS 06 Mar 14:41:07 14:42:44 13° 224° (SW) 14:44:16 145.825
JAS-2 06 Mar 14:49:33 14:54:55 41° 64° (ENE) 15:01:00 435.910
SWISSCUBE 06 Mar 14:54:20 14:58:37 32° 294° (WNW) 15:02:49 437.505
BEESAT 06 Mar 15:02:12 15:06:22 29° 295° (WNW) 15:10:28 436.000
HORYU 2 06 Mar 15:09:30 15:13:48 50° 260° (W) 15:18:08 437.375
Gurwin Techsat 1B 06 Mar 15:19:33 15:23:02 17° 273° (W) 15:26:19 435.225
ITAMSAT 1 06 Mar 15:23:38 15:25:34 12° 276° (W) 15:27:12 435.822/435.867
ITUPSAT 1 06 Mar 15:33:06 15:36:21 18° 301° (WNW) 15:39:27 437.325
STARS 06 Mar 15:35:39 15:40:03 76° 287° (WNW) 15:44:25 437.465
KKS-1 06 Mar 15:39:35 15:43:52 48° 290° (WNW) 15:48:07 437.445
BEESAT 3 06 Mar 15:44:06 15:47:20 23° 116° (ESE) 15:50:42 437.485
MOZHAYETS 4 06 Mar 15:46:44 15:49:15 15° 87° (E) 15:51:57
AO-7 06 Mar 16:02:34 16:10:37 49° 260° (W) 16:18:36 29.400- 29.500
Cubesat XI-IV 06 Mar 16:02:49 16:06:33 20° 58° (ENE) 16:10:27 437.490
CUTE-I 06 Mar 16:10:07 16:14:08 22° 60° (ENE) 16:18:17 437.470
BEESAT 2 06 Mar 16:13:55 16:17:45 38° 120° (ESE) 16:21:40 435.950
VERMONT LUNAR 06 Mar 16:19:24 16:21:35 16° 163° (SSE) 16:23:48 437.305
YUBILEINY 06 Mar 16:33:57 16:42:41 68° 284° (WNW) 16:51:29 435.215
JAS-2 06 Mar 16:34:44 16:40:06 39° 267° (W) 16:46:05 435.910
AIST 2 06 Mar 16:36:27 16:40:01 27° 117° (ESE) 16:43:42 435.215
AUBIESAT-1 06 Mar 16:38:44 16:42:46 37° 103° (ESE) 16:47:04 437.475
M-CUBED/EXP-1 PRIME 06 Mar 16:40:32 16:44:40 42° 104° (ESE) 16:49:04 437.505
PHONESAT 2.4 06 Mar 16:55:08 16:57:24 16° 161° (SSE) 16:59:42 2401.200-2431.200
AIST 1 06 Mar 16:57:18 17:01:15 31° 71° (ENE) 17:05:11
STARS 06 Mar 17:14:36 17:15:50 11° 304° (WNW) 17:16:53 437.465
BEESAT 3 06 Mar 17:21:12 17:25:12 47° 314° (NW) 17:29:15 437.485
MOZHAYETS 4 06 Mar 17:22:26 17:27:05 72° 287° (WNW) 17:31:43
O/OREOS (USA 219) 06 Mar 17:24:22 17:28:43 40° 56° (NE) 17:33:03 437.305
Cubesat XI-IV 06 Mar 17:40:46 17:46:09 75° 257° (WSW) 17:51:35 437.490
CUTE-I 06 Mar 17:48:28 17:53:48 66° 258° (WSW) 17:59:12 437.470
BEESAT 2 06 Mar 17:52:14 17:56:00 32° 320° (NW) 17:59:47 435.950
VERMONT LUNAR 06 Mar 17:55:59 17:58:50 23° 179° (S) 18:01:41 437.305
CUBESAT XI-V 06 Mar 17:57:22 18:01:15 25° 92° (E) 18:05:09 437.345
GOMX 1 06 Mar 18:07:05 18:07:28 10° 56° (NE) 18:08:07 467.674
STRAND 1 06 Mar 18:13:21 18:17:19 22° 91° (E) 18:21:22 437.568
AUBIESAT-1 06 Mar 18:13:46 18:17:33 30° 298° (WNW) 18:21:29 437.475
AIST 2 06 Mar 18:14:21 18:18:29 44° 315° (NW) 18:22:38 435.215
M-CUBED/EXP-1 PRIME 06 Mar 18:15:50 18:19:26 26° 300° (WNW) 18:23:12 437.505
BRITE-PL 06 Mar 18:21:31 18:25:22 21° 62° (ENE) 18:29:11 437.365/2234.400
HO-68 06 Mar 18:23:00 18:28:43 28° 55° (NE) 18:34:35 435.675
PRISM 06 Mar 18:24:05 18:28:06 40° 98° (E) 18:32:06 437.425
PHONESAT 2.4 06 Mar 18:32:10 18:35:11 24° 178° (S) 18:38:13 2401.200-2431.200
AIST 1 06 Mar 18:35:03 18:38:53 29° 270° (W) 18:42:37
YUBILEINY 06 Mar 18:35:56 18:41:41 18° 310° (NW) 18:47:05 435.215
SEEDS 06 Mar 18:56:45 18:59:22 17° 62° (ENE) 19:02:08 437.485
MOZHAYETS 4 06 Mar 19:02:07 19:03:34 11° 304° (NW) 19:04:49
BEESAT 3 06 Mar 19:02:15 19:04:18 13° 336° (NNW) 19:06:17 437.485
O/OREOS (USA 219) 06 Mar 19:04:05 19:08:01 27° 255° (WSW) 19:11:49 437.305
CANX-2 06 Mar 19:06:22 19:09:49 25° 66° (ENE) 19:13:20 2200.000
PCSat 06 Mar 19:14:29 19:19:08 31° 112° (ESE) 19:23:55 145.827
CUTE 1.7 + AOD 2 06 Mar 19:23:52 19:27:40 34° 68° (ENE) 19:31:31 437.475
Cubesat XI-IV 06 Mar 19:25:32 19:27:20 11° 277° (W) 19:28:48 437.490
CINEMA 3 06 Mar 19:28:59 19:32:12 20° 64° (ENE) 19:35:27 145.822/145.860
VERMONT LUNAR 06 Mar 19:33:45 19:36:06 17° 196° (SSW) 19:38:25 437.305
BEESAT 2 06 Mar 19:34:24 19:35:27 11° 342° (NNW) 19:36:26 435.950
CUBESAT XI-V 06 Mar 19:34:25 19:38:54 42° 291° (WNW) 19:43:18 437.345
GOMX 1 06 Mar 19:39:41 19:44:50 59° 72° (ENE) 19:49:41 467.674
ZACube-1 06 Mar 19:41:52 19:42:08 10° 58° (ENE) 19:42:37 437.345
AAUSAT CUBESAT 2 06 Mar 19:50:23 19:54:14 39° 70° (ENE) 19:58:08 437.432
STRAND 1 06 Mar 19:51:52 19:56:55 55° 290° (WNW) 20:01:55 437.568
DOVE 4 06 Mar 19:53:01 19:57:54 55° 72° (ENE) 20:02:31 437.250
AIST 2 06 Mar 19:56:02 19:58:10 13° 338° (NNW) 20:00:15 435.215
COMPASS 1 06 Mar 19:56:28 20:00:29 51° 72° (ENE) 20:04:34 437.405
BRITE-PL 06 Mar 19:57:56 20:03:28 72° 258° (WSW) 20:08:43 437.365/2234.400
PRISM 06 Mar 20:00:00 20:03:25 23° 296° (WNW) 20:06:44 437.425
UWE-3 06 Mar 20:08:10 20:11:25 22° 65° (ENE) 20:14:42 435.000/436.395/437.385
HO-68 06 Mar 20:08:42 20:15:52 77° 255° (WSW) 20:23:05 435.675
PHONESAT 2.4 06 Mar 20:10:23 20:13:01 19° 195° (SSW) 20:15:38 2401.200-2431.200
Oscar 11 06 Mar 20:16:31 20:20:29 38° 69° (ENE) 20:24:31 145.826/435.025
DELFI C3 06 Mar 20:30:37 20:34:24 40° 70° (ENE) 20:38:14 145.870
SEEDS 06 Mar 20:30:42 20:34:49 58° 260° (W) 20:38:58 437.485
HUMSAT D 06 Mar 20:41:28 20:44:32 21° 64° (ENE) 20:47:39 437.325/437.525
CANX-2 06 Mar 20:41:46 20:45:39 35° 264° (W) 20:49:33 2200.000
RS-15 06 Mar 20:44:43 20:50:20 17° 98° (E) 20:56:44 29.354- 29.394
GONETS M04 06 Mar 20:47:45 20:55:42 44° 87° (E) 21:03:48
DX 1 06 Mar 20:48:37 20:52:46 43° 69° (ENE) 20:56:58 434.975-435.025
CUBEBUG 2 06 Mar 20:54:11 20:58:34 69° 74° (ENE) 21:02:51 437.445
PCSat 06 Mar 20:57:06 21:02:23 50° 311° (NW) 21:07:42 145.827
CUTE 1.7 + AOD 2 06 Mar 21:00:07 21:03:41 26° 267° (W) 21:07:13 437.475
CUBEBUG 1 06 Mar 21:02:54 21:05:05 14° 59° (ENE) 21:07:25 437.445
CINEMA 3 06 Mar 21:04:32 21:09:08 56° 260° (W) 21:13:32 145.822/145.860
FUNcube-1 06 Mar 21:10:35 21:14:52 70° 74° (ENE) 21:19:05 145.935
UKube-1 06 Mar 21:11:59 21:16:19 69° 73° (ENE) 21:20:40 .
AISAT 06 Mar 21:13:24 21:17:26 34° 67° (ENE) 21:21:33 437.250
ZACube-1 06 Mar 21:13:34 21:17:52 76° 75° (ENE) 21:22:06 437.345
GOMX 1 06 Mar 21:19:21 21:23:19 21° 270° (W) 21:27:00 467.674
VELOX 1 06 Mar 21:20:32 21:24:41 39° 68° (ENE) 21:28:53 145.980
50 SAT 06 Mar 21:23:56 21:27:35 36° 70° (ENE) 21:31:15 437.505
AAUSAT CUBESAT 2 06 Mar 21:26:48 21:30:04 22° 268° (W) 21:33:17 437.432
DOVE 4 06 Mar 21:32:13 21:35:59 21° 269° (W) 21:39:30 437.250
COMPASS 1 06 Mar 21:33:47 21:36:34 17° 271° (W) 21:39:14 437.405
STRAND 1 06 Mar 21:34:32 21:35:08 10° 309° (NW) 21:35:28 437.568
BRITE-PL 06 Mar 21:41:15 21:42:55 11° 277° (W) 21:44:12 437.365/2234.400
UWE-3 06 Mar 21:43:34 21:47:45 45° 262° (W) 21:51:52 435.000/436.395/437.385
Oscar 11 06 Mar 21:53:18 21:56:50 24° 267° (W) 22:00:19 145.826/435.025
ESTCUBE 1 06 Mar 21:53:40 21:57:55 41° 69° (ENE) 22:02:14 437.505/2401.250
UNISAT 6 06 Mar 21:56:30 21:59:38 20° 91° (E) 22:02:53 437.425
HO-68 06 Mar 22:00:46 22:04:59 16° 276° (W) 22:08:49 435.675
POPSAT HIP 1 06 Mar 22:01:16 22:02:49 12° 86° (E) 22:04:35 437.405
POLYITAN 1 06 Mar 22:02:55 22:04:46 13° 87° (E) 22:06:47 437.675
DELFI C3 06 Mar 22:06:45 22:09:49 20° 269° (W) 22:12:48 145.870
HUMSAT D 06 Mar 22:16:04 22:20:04 44° 261° (W) 22:24:04 437.325/437.525
TIGRISAT 06 Mar 22:18:46 22:22:37 31° 96° (E) 22:26:31 435.000
NANOSAT C BR1 06 Mar 22:21:23 22:24:25 19° 91° (E) 22:27:32 145.865
DANDE 06 Mar 22:22:06 22:25:09 15° 92° (E) 22:28:00 436.750
BEESAT 3 06 Mar 22:22:09 22:24:09 13° 24° (NNE) 22:26:13 437.485
CUSAT 1 06 Mar 22:23:50 22:27:07 17° 94° (E) 22:30:04 437.405
DX 1 06 Mar 22:25:43 22:29:14 22° 267° (W) 22:32:41 434.975-435.025
CUBEBUG 2 06 Mar 22:33:27 22:35:48 14° 272° (W) 22:37:56 437.445
ANTELSAT 06 Mar 22:34:49 22:38:59 46° 99° (E) 22:43:14 437.575/2403.000
CUBEBUG 1 06 Mar 22:36:25 22:40:53 85° 259° (W) 22:45:23 437.445
TISAT 1 06 Mar 22:37:51 22:41:25 27° 66° (ENE) 22:45:03 437.305
BUGSAT 1 06 Mar 22:40:59 22:44:15 23° 92° (E) 22:47:33 437.445
PCSat 06 Mar 22:43:49 22:47:10 16° 335° (NNW) 22:50:26 145.827
GONETS M04 06 Mar 22:44:10 22:52:33 49° 290° (WNW) 23:00:56
FUNcube-1 06 Mar 22:49:36 22:51:45 13° 273° (W) 22:53:43 145.935
RS-15 06 Mar 22:49:59 23:00:41 67° 120° (ESE) 23:11:38 29.354- 29.394
AISAT 06 Mar 22:50:09 22:54:07 29° 265° (W) 22:58:03 437.250
SPROUT 06 Mar 22:50:23 22:54:23 38° 69° (ENE) 22:58:26 437.525
UKube-1 06 Mar 22:50:39 22:53:01 14° 272° (W) 22:55:14 .
BEESAT 2 06 Mar 22:52:39 22:55:25 17° 29° (NNE) 22:58:15 435.950
ZACube-1 06 Mar 22:53:01 22:54:51 12° 273° (W) 22:56:28 437.345
SWISSCUBE 06 Mar 22:53:30 22:54:02 10° 53° (NE) 22:54:48 437.505
QB50P1 06 Mar 22:54:52 22:58:54 42° 98° (E) 23:02:54 145.935-145.965
VELOX 1 06 Mar 22:57:36 23:01:24 26° 267° (W) 23:05:08 145.980
50 SAT 06 Mar 22:59:37 23:02:44 21° 268° (W) 23:05:46 437.505
QB50P2 06 Mar 23:00:22 23:04:30 48° 99° (E) 23:08:35 145.880/145.840
BEESAT 06 Mar 23:00:29 23:01:42 11° 54° (NE) 23:03:09 436.000
DUCHIFAT 1 06 Mar 23:11:09 23:15:20 61° 101° (E) 23:19:30 145.980
AIST 2 06 Mar 23:16:38 23:19:06 15° 25° (NNE) 23:21:38 435.215
ITUPSAT 1 06 Mar 23:28:33 23:31:48 19° 60° (ENE) 23:35:12 437.325
ESTCUBE 1 06 Mar 23:31:14 23:34:59 24° 268° (W) 23:38:42 437.505/2401.250
UNISAT 6 06 Mar 23:32:34 23:36:43 47° 289° (WNW) 23:40:54 437.425
POPSAT HIP 1 06 Mar 23:35:06 23:39:21 75° 285° (WNW) 23:43:32 437.405
POLYITAN 1 06 Mar 23:37:03 23:41:17 71° 286° (WNW) 23:45:28 437.675
SO-50 06 Mar 23:39:43 23:42:29 16° 111° (ESE) 23:45:28 436.795
TIGRISAT 06 Mar 23:55:36 23:59:21 29° 293° (WNW) 00:03:06 435.000
NANOSAT C BR1 06 Mar 23:56:31 00:00:34 45° 290° (WNW) 00:04:35 145.865
BEESAT 3 06 Mar 23:59:12 00:03:15 48° 46° (NE) 00:07:14 437.485
DANDE 07 Mar 00:02:28 00:08:24 73° 282° (WNW) 00:12:46 436.750
CUSAT 1 07 Mar 00:04:40 00:09:56 54° 283° (WNW) 00:13:51 437.405
ANTELSAT 07 Mar 00:12:16 00:15:34 21° 296° (WNW) 00:18:48 437.575/2403.000
TISAT 1 07 Mar 00:13:12 00:17:08 35° 264° (W) 00:21:04 437.305
BUGSAT 1 07 Mar 00:16:03 00:19:55 37° 291° (WNW) 00:23:41 437.445
CUBEBUG 1 07 Mar 00:17:42 00:18:04 10° 276° (W) 00:18:11 437.445
SWISSCUBE 07 Mar 00:26:19 00:31:01 62° 72° (ENE) 00:35:49 437.505
SPROUT 07 Mar 00:27:02 00:30:38 24° 267° (W) 00:34:11 437.525
BEESAT 2 07 Mar 00:30:07 00:34:19 77° 51° (NE) 00:38:26 435.950
QB50P1 07 Mar 00:31:15 00:34:35 22° 296° (WNW) 00:37:49 145.935-145.965
BEESAT 07 Mar 00:34:01 00:38:45 67° 72° (ENE) 00:43:33 436.000
QB50P2 07 Mar 00:37:00 00:40:07 20° 297° (WNW) 00:43:08 145.880/145.840
YUBILEINY 07 Mar 00:43:45 00:49:44 20° 52° (NE) 00:56:02 435.215
DUCHIFAT 1 07 Mar 00:48:05 00:50:47 16° 299° (WNW) 00:53:22 145.980
GONETS M04 07 Mar 00:48:43 00:52:18 12° 317° (NW) 00:55:24
AIST 2 07 Mar 00:54:24 00:58:39 56° 47° (NE) 01:02:50 435.215
STARS 07 Mar 01:01:14 01:04:19 19° 62° (ENE) 01:07:31 437.465
RS-15 07 Mar 01:03:07 01:13:41 50° 327° (NNW) 01:24:31 29.354- 29.394
ITUPSAT 1 07 Mar 01:04:30 01:09:16 67° 258° (WSW) 01:14:06 437.325
KKS-1 07 Mar 01:05:11 01:09:02 30° 66° (ENE) 01:12:57 437.445
POPSAT HIP 1 07 Mar 01:14:06 01:14:32 10° 303° (WNW) 01:14:47 437.405
SO-50 07 Mar 01:17:48 01:22:28 80° 311° (NW) 01:27:18 436.795
BEESAT 3 07 Mar 01:37:46 01:41:06 23° 244° (WSW) 01:44:17 437.485
Oscar 19 07 Mar 01:39:59 01:45:06 64° 102° (ESE) 01:50:12 437.125/150
ITAMSAT 1 07 Mar 01:49:29 01:53:56 28° 93° (E) 01:58:27 435.822/435.867
Gurwin Techsat 1B 07 Mar 01:50:14 01:54:23 23° 91° (E) 01:58:39 435.225
M-CUBED/EXP-1 PRIME 07 Mar 02:02:00 02:02:40 11° 52° (NE) 02:03:29 437.505
SWISSCUBE 07 Mar 02:06:02 02:09:23 18° 271° (W) 02:12:37 437.505
BEESAT 2 07 Mar 02:09:44 02:11:58 14° 249° (WSW) 02:14:03 435.950
BEESAT 07 Mar 02:14:02 02:17:09 17° 272° (W) 02:20:07 436.000
PCSat 07 Mar 02:15:18 02:18:47 17° 27° (NNE) 02:22:23 145.827
AIST 2 07 Mar 02:33:43 02:36:56 20° 246° (WSW) 02:40:00 435.215
STARS 07 Mar 02:36:07 02:40:27 55° 259° (W) 02:44:50 437.465
YUBILEINY 07 Mar 02:39:34 02:48:28 76° 78° (ENE) 02:57:18 435.215
KKS-1 07 Mar 02:41:33 02:45:38 34° 264° (W) 02:49:43 437.445
MOZHAYETS 4 07 Mar 02:52:04 02:55:30 22° 63° (ENE) 02:59:02
HORYU 2 07 Mar 02:57:36 03:01:12 24° 93° (E) 03:04:51 437.375
SO-50 07 Mar 03:00:09 03:03:48 21° 332° (NNW) 03:07:27 436.795
RS-15 07 Mar 03:19:31 03:29:17 34° 360° (N) 03:39:24 29.354- 29.394
Oscar 19 07 Mar 03:20:11 03:24:03 21° 300° (WNW) 03:27:49 437.125/150
ITAMSAT 1 07 Mar 03:28:41 03:33:39 45° 293° (WNW) 03:38:34 435.822/435.867
Gurwin Techsat 1B 07 Mar 03:29:33 03:34:46 56° 290° (WNW) 03:39:58 435.225
AUBIESAT-1 07 Mar 03:31:17 03:34:40 81° 70° (ENE) 03:38:20 437.475
M-CUBED/EXP-1 PRIME 07 Mar 03:33:38 03:37:01 83° 249° (WSW) 03:40:40 437.505
JAS-2 07 Mar 03:38:24 03:45:00 33° 91° (E) 03:51:57 435.910
